sat.trackr.live / text

‹ back to catalog

STARLINK-3193

NORAD 49754 · 2021-115AG

PAYLOAD ACTIVE UNKNOWN

§ Identity

Operator
Country
US
Launch date
2021-12-02
Launch site
AFETR
Launch vehicle
Mass (kg)
RCS (m²)

Purposes: comms

External: N2YO · Heavens-Above · Gunter

§ Orbital elements

Epoch: 2026-09-19T18:37:47.669952Z

Period
93.79 min
Inclination
53.1603°
Eccentricity
0.0001149
Mean motion
15.35398477 rev/d
Perigee alt
459.0 km
Apogee alt
460.5 km
Semi-major
6,837.9 km
B*
5.6674e-5
RAAN
333.3992°
Arg perigee
81.3449°
Mean anomaly
278.7684°
Rev number
26,517

§ Raw data

STARLINK-31931 49754U 21115AG  26262.77624618  .00001597  00000+0  56674-4 0  99912 49754  53.1603 333.3992 0001149  81.3449 278.7684 15.35398477265170

JSON: /api/v1/satellites/49754 · /tle

For live sub-satellite position, see the globe view (requires WebGL).

§ Visibility from observer

Set your observer location to see the next 7 days of passes ≥ 10°. The values pass through the URL so the page stays shareable.

No JS? Fill the form by hand. The geolocation button needs JavaScript.